Falfurrias, TX

9:09 AM CST on December 15, 2019 (GMT -0600)
Falfurrias

Weather History for KBKS - July, 2019

Change the Weather History Date:

Wednesday, July 17, 2019

  Actual Average (KNQI) Record (KNQI)
Temperature  
Mean Temperature 91 °F -  
Max Temperature 102 °F 93 °F 104 °F (1998)
Min Temperature 80 °F 73 °F 70 °F (2011)
Cooling Degree Days 26    
Growing Degree Days 41 (Base 50)    
Moisture  
Dew Point 74 °F    
Average Humidity 63    
Maximum Humidity 91    
Minimum Humidity 31    
Precipitation  
Precipitation 0.00 in - - ()
Sea Level Pressure  
Sea Level Pressure 29.96 in    
Wind  
Wind Speed 10 mph (SE)    
Max Wind Speed 22 mph    
Max Gust Speed 28 mph    
Visibility 9 miles    
Events      
Averages and records for this station are not official NWS values.
T = Trace of Precipitation, MM = Missing Value Source: NWS Daily Summary

Daily Weather History Graph

Daily Weather History Graph

Search for Another Location

Airport or City:

Astronomy

Jul. 17, 2019 Rise Set
Actual Time 6:48 AM CDT 8:28 PM CDT
Civil Twilight 6:22 AM CDT 8:54 PM CDT
Nautical Twilight 5:51 AM CDT 9:25 PM CDT
Astronomical Twilight 5:19 AM CDT 9:57 PM CDT
Moon 9:19 PM CDT (7/17) 7:22 AM CDT (7/17)
Length of Visible Light 14h 31m
Length of Day
13h 40m
Full, 99% of the Moon is Illuminated
Jul 17
Full
Jul 24
Last Quarter
Jul 31
New
Aug 7
First Quarter
Aug 15
Full

Hourly Weather History & Observations

Time (CDT) Temp. Heat Index Dew Point Humidity Pressure Visibility Wind Dir Wind Speed Gust Speed Precip Events Conditions
12:35 AM 83.3 °F 92.8 °F 77.2 °F 82% 29.98 in 10.0 mi ESE 6.9 mph - N/A   Clear
12:55 AM 83.1 °F 92.6 °F 77.4 °F 83% 29.98 in 10.0 mi ESE 6.9 mph - N/A   Scattered Clouds
1:15 AM 83.3 °F 93.1 °F 77.5 °F 83% 29.99 in 10.0 mi SE 5.8 mph - N/A   Mostly Cloudy
1:35 AM 83.5 °F 93.6 °F 77.7 °F 83% 29.99 in 10.0 mi ESE 6.9 mph - N/A   Mostly Cloudy
1:55 AM 83.3 °F 93.5 °F 77.9 °F 84% 29.99 in 10.0 mi SE 6.9 mph - N/A   Mostly Cloudy
2:15 AM 82.9 °F 92.8 °F 77.9 °F 85% 29.99 in 10.0 mi SE 5.8 mph - N/A   Mostly Cloudy
2:35 AM 82.9 °F 92.8 °F 77.9 °F 85% 29.98 in 10.0 mi ESE 5.8 mph - N/A   Mostly Cloudy
2:55 AM 82.8 °F 92.2 °F 77.9 °F 85% 29.98 in 10.0 mi SE 5.8 mph - N/A   Overcast
3:15 AM 82.4 °F 91.5 °F 77.9 °F 86% 29.97 in 10.0 mi SE 5.8 mph - N/A   Mostly Cloudy
3:35 AM 82.0 °F 90.8 °F 77.9 °F 87% 29.97 in 10.0 mi SE 4.6 mph - N/A   Mostly Cloudy
3:55 AM 82.4 °F 91.8 °F 78.1 °F 87% 29.96 in 10.0 mi SE 6.9 mph - N/A   Overcast
4:15 AM 82.0 °F 90.8 °F 77.9 °F 87% 29.96 in 10.0 mi SE 5.8 mph - N/A   Scattered Clouds
4:35 AM 81.7 °F 90.0 °F 77.9 °F 88% 29.96 in 7.0 mi ESE 4.6 mph - N/A   Clear
4:55 AM 81.5 °F 89.7 °F 77.9 °F 89% 29.96 in 7.0 mi ESE 3.5 mph - N/A   Scattered Clouds
5:15 AM 81.5 °F 89.7 °F 78.1 °F 89% 29.96 in 7.0 mi ESE 3.5 mph - N/A   Scattered Clouds
5:35 AM 81.3 °F 89.4 °F 78.1 °F 90% 29.96 in 7.0 mi ESE 3.5 mph - N/A   Mostly Cloudy
5:55 AM 81.0 °F 88.4 °F 77.9 °F 90% 29.96 in 7.0 mi East 4.6 mph - N/A   Mostly Cloudy
6:15 AM 80.8 °F 88.0 °F 77.9 °F 91% 29.97 in 7.0 mi ESE 4.6 mph - N/A   Scattered Clouds
6:35 AM 80.6 °F 87.5 °F 77.9 °F 91% 29.97 in 5.0 mi ESE 4.6 mph - N/A   Scattered Clouds
6:55 AM 80.6 °F 87.5 °F 77.9 °F 91% 29.98 in 5.0 mi ESE 4.6 mph - N/A   Clear
7:15 AM 80.6 °F 87.5 °F 77.9 °F 91% 29.98 in 5.0 mi ESE 5.8 mph - N/A   Clear
7:35 AM 81.0 °F 88.6 °F 78.3 °F 91% 29.98 in 5.0 mi ESE 5.8 mph - N/A   Clear
7:55 AM 82.2 °F 91.6 °F 78.4 °F 88% 29.98 in 7.0 mi SE 6.9 mph - N/A   Clear
8:15 AM 84.0 °F 95.2 °F 78.4 °F 83% 29.99 in 7.0 mi SE 8.1 mph - N/A   Scattered Clouds
8:35 AM 85.1 °F 97.1 °F 78.3 °F 80% 30.00 in 10.0 mi SSE 11.5 mph - N/A   Scattered Clouds
8:55 AM 86.5 °F 99.4 °F 78.1 °F 76% 30.00 in 10.0 mi SSE 11.5 mph - N/A   Mostly Cloudy
9:15 AM 88.3 °F 101.1 °F 77.4 °F 70% 30.00 in 10.0 mi SSE 13.8 mph 18.4 mph N/A   Scattered Clouds
9:35 AM 89.8 °F 100.3 °F 75.2 °F 62% 30.00 in 10.0 mi SSE 15.0 mph 23.0 mph N/A   Clear
9:55 AM 91.2 °F 100.8 °F 74.3 °F 57% 30.00 in 10.0 mi SSE 17.3 mph - N/A   Scattered Clouds
10:15 AM 91.9 °F 100.7 °F 73.4 °F 54% 30.00 in 10.0 mi South 17.3 mph 23.0 mph N/A   Scattered Clouds
10:35 AM 93.0 °F 101.9 °F 73.2 °F 52% 30.00 in 10.0 mi South 18.4 mph 23.0 mph N/A   Scattered Clouds
10:55 AM 94.1 °F 102.5 °F 72.5 °F 49% 30.00 in 10.0 mi SE 18.4 mph 24.2 mph N/A   Scattered Clouds
11:15 AM 95.0 °F 103.2 °F 72.1 °F 47% 29.99 in 10.0 mi SE 16.1 mph 21.9 mph N/A   Clear
11:35 AM 95.7 °F 102.8 °F 70.3 °F 44% 30.00 in 10.0 mi SE 15.0 mph 20.7 mph N/A   Clear
11:55 AM 97.0 °F 102.8 °F 69.3 °F 40% 30.00 in 10.0 mi SSE 16.1 mph 25.3 mph N/A   Clear
12:15 PM 97.5 °F 104.6 °F 70.2 °F 41% 29.99 in 10.0 mi SSE 17.3 mph 20.7 mph N/A   Scattered Clouds
12:35 PM 98.4 °F 105.1 °F 69.4 °F 39% 29.99 in 10.0 mi SE 18.4 mph 27.6 mph N/A   Clear
12:55 PM 99.1 °F 105.2 °F 68.9 °F 37% 29.99 in 10.0 mi SE 18.4 mph 24.2 mph N/A   Clear
1:15 PM 100.8 °F 107.0 °F 68.7 °F 35% 29.98 in 10.0 mi SSE 16.1 mph 25.3 mph N/A   Clear
1:35 PM 100.0 °F 107.0 °F 69.3 °F 37% 29.98 in 10.0 mi SE 15.0 mph 21.9 mph N/A   Scattered Clouds
1:55 PM 102.4 °F 108.0 °F 67.6 °F 32% 29.98 in 10.0 mi SSE 17.3 mph 26.5 mph N/A   Scattered Clouds
2:15 PM 102.2 °F 109.2 °F 68.5 °F 34% 29.97 in 10.0 mi SSE 16.1 mph 21.9 mph N/A   Scattered Clouds
2:35 PM 102.0 °F 108.1 °F 68.0 °F 33% 29.97 in 10.0 mi SSE 20.7 mph 24.2 mph N/A   Scattered Clouds
2:55 PM 101.8 °F 107.7 °F 67.5 °F 33% 29.96 in 10.0 mi South 18.4 mph 26.5 mph N/A   Scattered Clouds
3:15 PM 102.0 °F 107.3 °F 67.1 °F 32% 29.95 in 10.0 mi SSE 11.5 mph 26.5 mph N/A   Scattered Clouds
3:35 PM 102.2 °F 106.9 °F 66.2 °F 31% 29.94 in 10.0 mi SE 12.7 mph 20.7 mph N/A   Scattered Clouds
3:55 PM 101.1 °F 105.6 °F 66.0 °F 32% 29.93 in 10.0 mi SSE 15.0 mph 23.0 mph N/A   Clear
4:15 PM 101.8 °F 107.0 °F 66.9 °F 32% 29.92 in 10.0 mi SE 16.1 mph 20.7 mph N/A   Scattered Clouds
4:35 PM 100.2 °F 104.6 °F 66.4 °F 33% 29.92 in 10.0 mi SSE 17.3 mph - N/A   Scattered Clouds
4:55 PM 102.0 °F 106.6 °F 66.4 °F 31% 29.92 in 10.0 mi SSE 17.3 mph 21.9 mph N/A   Scattered Clouds
5:15 PM 101.1 °F 111.0 °F 72.1 °F 39% 29.91 in 10.0 mi ESE 18.4 mph 24.2 mph N/A   Mostly Cloudy
5:35 PM 99.0 °F 108.5 °F 72.3 °F 42% 29.91 in 10.0 mi SE 16.1 mph 23.0 mph N/A   Mostly Cloudy
5:50 PM 99.9 °F 107.4 °F 70.2 °F 38% 29.91 in 10.0 mi SE 16.1 mph 26.5 mph N/A   Scattered Clouds
6:15 PM 98.4 °F 107.3 °F 71.8 °F 42% 29.91 in 10.0 mi SE 15.0 mph 23.0 mph N/A   Mostly Cloudy
6:35 PM 96.1 °F 104.9 °F 72.5 °F 46% 29.91 in 10.0 mi ESE 21.9 mph 25.3 mph N/A   Scattered Clouds
6:55 PM 95.2 °F 104.2 °F 72.7 °F 48% 29.91 in 10.0 mi SE 20.7 mph 25.3 mph N/A   Scattered Clouds
7:15 PM 95.5 °F 104.4 °F 72.7 °F 47% 29.92 in 10.0 mi SE 17.3 mph 23.0 mph N/A   Scattered Clouds
7:35 PM 94.1 °F 103.1 °F 72.9 °F 50% 29.92 in 10.0 mi SE 19.6 mph 25.3 mph N/A   Scattered Clouds
7:55 PM 92.8 °F 102.2 °F 73.4 °F 53% 29.93 in 10.0 mi SE 13.8 mph 20.7 mph N/A   Scattered Clouds
8:15 PM 91.6 °F 100.5 °F 73.4 °F 55% 29.93 in 10.0 mi ESE 15.0 mph 18.4 mph N/A   Scattered Clouds
8:35 PM 90.5 °F 99.2 °F 73.4 °F 57% 29.93 in 10.0 mi ESE 8.1 mph 17.3 mph N/A   Clear
8:55 PM 89.6 °F 98.2 °F 73.4 °F 59% 29.93 in 10.0 mi ESE 8.1 mph 16.1 mph N/A   Clear
9:15 PM 88.0 °F 96.0 °F 73.4 °F 62% 29.93 in 10.0 mi ESE 8.1 mph - N/A   Clear
9:35 PM 87.3 °F 95.3 °F 73.6 °F 64% 29.94 in 10.0 mi ESE 8.1 mph - N/A   Clear
9:55 PM 86.4 °F 94.6 °F 74.3 °F 67% 29.94 in 10.0 mi ESE 9.2 mph - N/A   Clear
10:15 PM 85.6 °F 94.2 °F 74.7 °F 70% 29.95 in 10.0 mi ESE 6.9 mph - N/A   Clear
10:35 PM 84.7 °F 93.2 °F 75.2 °F 73% 29.95 in 10.0 mi ESE 8.1 mph - N/A   Clear
10:55 PM 84.4 °F 93.1 °F 75.6 °F 75% 29.96 in 10.0 mi ESE 8.1 mph - N/A   Clear
11:15 PM 83.8 °F 92.5 °F 76.1 °F 77% 29.96 in 10.0 mi ESE 6.9 mph - N/A   Clear
11:35 PM 83.5 °F 92.2 °F 76.3 °F 79% 29.97 in 10.0 mi ESE 8.1 mph - N/A   Clear
11:55 PM 83.3 °F 92.1 °F 76.5 °F 80% 29.97 in 10.0 mi SE 9.2 mph - N/A   Clear